• In Sweden
  • List of Countries
  • For 7 days
  • Water Temperature
  • Satellite Maps
  • Weather Map
  • Weather Widgets
  • user-avatar
    Login

    Hourly Weather Zheldybino

    Today, 26 September, Wednesday

    Time Temperature Precipitation Wind Pressure Humidity
    00:00 +3°C° 0 mm 4 mps 742 mmHg 82%
    01:00 +3°C° 0 mm 4 mps 742 mmHg 83%
    02:00 +1°C° 0 mm 4 mps 743 mmHg 83%
    03:00 +1°C° 0 mm 4 mps 744 mmHg 84%
    04:00 0°C° 0 mm 4 mps 744 mmHg 84%
    05:00 0°C° 0 mm 4 mps 744 mmHg 85%
    06:00 +1°C° 0 mm 4 mps 745 mmHg 82%
    07:00 +3°C° 0 mm 4 mps 745 mmHg 79%
    08:00 +3°C° 0 mm 4 mps 745 mmHg 76%
    09:00 +5°C° 0 mm 4 mps 745 mmHg 74%
    10:00 +6°C° 0 mm 4 mps 745 mmHg 72%
    11:00 +7°C° 0 mm 5 mps 745 mmHg 71%
    12:00 +8°C° 0 mm 5 mps 745 mmHg 68%
    13:00 +9°C° 0 mm 5 mps 745 mmHg 65%
    14:00 +10°C° 0 mm 5 mps 744 mmHg 63%
    15:00 +9°C° 0 mm 5 mps 743 mmHg 65%
    16:00 +8°C° 0 mm 5 mps 743 mmHg 66%
    17:00 +7°C° 0 mm 5 mps 742 mmHg 68%
    18:00 +7°C° 0.2 mm 6 mps 741 mmHg 69%
    19:00 +7°C° 0.2 mm 6 mps 740 mmHg 70%
    20:00 +6°C° 0.2 mm 7 mps 739 mmHg 71%
    21:00 +5°C° 1.3 mm 8 mps 737 mmHg 76%
    22:00 +5°C° 1.3 mm 8 mps 736 mmHg 81%
    23:00 +3°C° 1.3 mm 9 mps 734 mmHg 85%

    Tomorrow, 27 September, Thursday

    Time Temperature Precipitation Wind Pressure Humidity
    00:00 +3°C° 1.7 mm 9 mps 733 mmHg 86%
    01:00 +4°C° 1.7 mm 8 mps 732 mmHg 87%
    02:00 +4°C° 1.7 mm 8 mps 731 mmHg 88%
    03:00 +5°C° 1 mm 8 mps 730 mmHg 88%
    04:00 +5°C° 1 mm 7 mps 730 mmHg 88%
    05:00 +7°C° 1 mm 6 mps 729 mmHg 88%
    06:00 +7°C° 0.2 mm 6 mps 729 mmHg 85%
    07:00 +7°C° 0.2 mm 6 mps 729 mmHg 81%
    08:00 +7°C° 0.2 mm 6 mps 730 mmHg 78%
    09:00 +6°C° 0.2 mm 7 mps 730 mmHg 75%
    10:00 +8°C° 0.2 mm 7 mps 730 mmHg 71%
    11:00 +7°C° 0.2 mm 8 mps 730 mmHg 68%
    12:00 +7°C° 0.2 mm 8 mps 731 mmHg 68%
    13:00 +7°C° 0.2 mm 8 mps 731 mmHg 68%
    14:00 +7°C° 0.2 mm 8 mps 731 mmHg 68%
    15:00 +6°C° 0.1 mm 7 mps 732 mmHg 69%
    16:00 +5°C° 0.1 mm 6 mps 732 mmHg 71%
    17:00 +6°C° 0.1 mm 5 mps 732 mmHg 72%
    18:00 +5°C° 0 mm 5 mps 733 mmHg 73%
    19:00 +5°C° 0 mm 5 mps 733 mmHg 74%
    20:00 +4°C° 0 mm 4 mps 733 mmHg 76%
    21:00 +3°C° 0 mm 5 mps 734 mmHg 76%
    22:00 +3°C° 0 mm 5 mps 734 mmHg 76%
    23:00 +3°C° 0 mm 5 mps 734 mmHg 76%

    Day after tomorrow, 28 September, Friday

    Time Temperature Precipitation Wind Pressure Humidity
    00:00 +3°C° 0 mm 5 mps 734 mmHg 77%
    01:00 +4°C° 0 mm 4 mps 734 mmHg 77%
    02:00 +4°C° 0 mm 4 mps 734 mmHg 78%
    03:00 +4°C° 0.7 mm 4 mps 733 mmHg 83%
    04:00 +4°C° 0.7 mm 4 mps 732 mmHg 87%
    05:00 +4°C° 0.7 mm 3 mps 731 mmHg 91%
    06:00 +4°C° 2 mm 3 mps 730 mmHg 93%
    07:00 +4°C° 2 mm 3 mps 729 mmHg 94%
    08:00 +4°C° 2 mm 3 mps 728 mmHg 95%
    09:00 +4°C° 0.4 mm 3 mps 728 mmHg 93%
    10:00 +5°C° 0.4 mm 3 mps 728 mmHg 92%
    11:00 +5°C° 0.4 mm 3 mps 728 mmHg 90%
    12:00 +5°C° 0.1 mm 4 mps 729 mmHg 86%
    13:00 +5°C° 0.1 mm 4 mps 730 mmHg 83%
    14:00 +5°C° 0.1 mm 5 mps 731 mmHg 79%
    15:00 +5°C° 0 mm 4 mps 732 mmHg 79%
    16:00 +5°C° 0 mm 4 mps 734 mmHg 80%
    17:00 +4°C° 0 mm 4 mps 735 mmHg 80%
    18:00 +3°C° 0 mm 4 mps 735 mmHg 80%
    19:00 +3°C° 0 mm 4 mps 736 mmHg 81%
    20:00 +1°C° 0 mm 4 mps 737 mmHg 81%
    21:00 +1°C° 0 mm 4 mps 737 mmHg 83%
    22:00 +1°C° 0 mm 3 mps 738 mmHg 85%
    23:00 +1°C° 0 mm 3 mps 738 mmHg 86%

    29 September, Saturday

    Time Temperature Precipitation Wind Pressure Humidity
    00:00 +1°C° 0 mm 3 mps 739 mmHg 86%
    01:00 0°C° 0 mm 3 mps 739 mmHg 86%
    02:00 0°C° 0 mm 3 mps 740 mmHg 86%
    03:00 0°C° 0 mm 3 mps 740 mmHg 85%
    04:00 -1°C° 0 mm 3 mps 741 mmHg 85%
    05:00 -2°C° 0 mm 4 mps 742 mmHg 85%
    06:00 -1°C° 0 mm 4 mps 742 mmHg 80%
    07:00 0°C° 0 mm 4 mps 743 mmHg 75%
    08:00 +1°C° 0 mm 5 mps 744 mmHg 70%
    09:00 +2°C° 0 mm 5 mps 744 mmHg 65%
    10:00 +3°C° 0 mm 5 mps 745 mmHg 60%
    11:00 +5°C° 0 mm 5 mps 745 mmHg 55%
    12:00 +5°C° 0 mm 5 mps 746 mmHg 54%
    13:00 +5°C° 0 mm 5 mps 746 mmHg 53%
    14:00 +5°C° 0 mm 5 mps 746 mmHg 53%
    15:00 +4°C° 0 mm 4 mps 747 mmHg 57%
    16:00 +3°C° 0 mm 3 mps 747 mmHg 62%
    17:00 +3°C° 0 mm 2 mps 747 mmHg 66%
    18:00 +2°C° 0 mm 2 mps 748 mmHg 68%
    19:00 +1°C° 0 mm 2 mps 748 mmHg 70%
    20:00 +1°C° 0 mm 2 mps 749 mmHg 73%
    21:00 -1°C° 0 mm 2 mps 749 mmHg 74%
    22:00 -1°C° 0 mm 2 mps 749 mmHg 76%
    23:00 -1°C° 0 mm 2 mps 750 mmHg 78%

    30 September, Sunday

    Time Temperature Precipitation Wind Pressure Humidity
    00:00 -1°C° 0 mm 2 mps 750 mmHg 78%
    01:00 -1°C° 0 mm 3 mps 750 mmHg 78%
    02:00 -1°C° 0 mm 3 mps 750 mmHg 77%
    03:00 -1°C° 0 mm 3 mps 750 mmHg 78%
    04:00 -1°C° 0 mm 3 mps 750 mmHg 79%
    05:00 -1°C° 0 mm 3 mps 749 mmHg 80%
    06:00 -1°C° 0 mm 4 mps 749 mmHg 77%
    07:00 0°C° 0 mm 4 mps 749 mmHg 74%
    08:00 +1°C° 0 mm 5 mps 749 mmHg 70%
    09:00 +3°C° 0 mm 5 mps 749 mmHg 66%
    10:00 +4°C° 0 mm 6 mps 749 mmHg 62%
    11:00 +7°C° 0 mm 6 mps 749 mmHg 58%
    12:00 +7°C° 0 mm 6 mps 748 mmHg 57%
    13:00 +8°C° 0 mm 6 mps 748 mmHg 56%
    14:00 +8°C° 0 mm 6 mps 748 mmHg 55%
    15:00 +7°C° 0 mm 5 mps 747 mmHg 57%
    16:00 +6°C° 0 mm 5 mps 747 mmHg 60%
    17:00 +5°C° 0 mm 4 mps 747 mmHg 63%
    18:00 +5°C° 0 mm 4 mps 747 mmHg 63%
    19:00 +5°C° 0 mm 4 mps 747 mmHg 63%
    20:00 +3°C° 0 mm 5 mps 747 mmHg 63%
    21:00 +3°C° 0 mm 5 mps 746 mmHg 64%
    22:00 +3°C° 0 mm 5 mps 746 mmHg 66%
    23:00 +3°C° 0 mm 5 mps 746 mmHg 67%

    1 October, Monday

    Time Temperature Precipitation Wind Pressure Humidity
    00:00 +3°C° 0 mm 5 mps 746 mmHg 69%
    01:00 +3°C° 0 mm 4 mps 746 mmHg 71%
    02:00 +3°C° 0 mm 4 mps 745 mmHg 73%
    03:00 +3°C° 0 mm 4 mps 745 mmHg 75%
    04:00 +3°C° 0 mm 4 mps 745 mmHg 78%
    05:00 +3°C° 0 mm 4 mps 745 mmHg 80%
    06:00 +3°C° 0 mm 4 mps 745 mmHg 79%
    07:00 +3°C° 0 mm 5 mps 745 mmHg 78%
    08:00 +5°C° 0 mm 5 mps 745 mmHg 76%
    09:00 +6°C° 0 mm 5 mps 745 mmHg 73%
    10:00 +7°C° 0 mm 5 mps 745 mmHg 70%
    11:00 +9°C° 0 mm 5 mps 745 mmHg 66%
    12:00 +9°C° 0 mm 5 mps 745 mmHg 65%
    13:00 +10°C° 0 mm 5 mps 745 mmHg 63%
    14:00 +10°C° 0 mm 5 mps 745 mmHg 62%
    15:00 +10°C° 0 mm 4 mps 744 mmHg 67%
    16:00 +9°C° 0 mm 3 mps 744 mmHg 72%
    17:00 +8°C° 0 mm 2 mps 744 mmHg 77%
    18:00 +7°C° 0 mm 3 mps 744 mmHg 79%
    19:00 +7°C° 0 mm 3 mps 744 mmHg 81%
    20:00 +5°C° 0 mm 3 mps 744 mmHg 83%
    21:00 +5°C° 0 mm 3 mps 744 mmHg 85%
    22:00 +4°C° 0 mm 3 mps 744 mmHg 86%
    23:00 +5°C° 0 mm 2 mps 744 mmHg 88%
    Show more